Volver al catálogo

COSMOS 1691 DEB

ActivoPO
NORAD 43314·DEBRIS·🇷🇺 Russia

Lanzado Oct 9, 1985 desde Plesetsk Cosmodrome

Loading…

Próximos Pases (próximas 24 horas)

TLE

ActualizadoSource: Space-Track

Época: Sep 14, 2026, 04:34 UTC

1 43314U 85094Y   26257.19077817  .00000313  00000-0  13414-2 0  9995
2 43314  82.5570 335.6579 0038106  39.0517 321.3323 12.79108239597195

Sigue COSMOS 1691 DEB en tiempo real con AllMySat

Download on the App Store